Terminal Aerodrome Forecast
Issued by NWS Omaha/Valley, NE

Home | Current Version | Previous Version | Text Only | Print | Product List | Glossary On
Versions: 1 2 3 4 5 6 7 8 9 10 11 12 13 14 15 16 17 18 19 20 21 22 23 24 25 26 27 28 29 30 31 32 33 34 35 36 37 38 39 40 41 42 43 44
000
FTUS43 KOAX 252012 AAB
TAFOMA
TAF AMD
KOMA 252012Z 2520/2618 04010KT P6SM OVC015
     FM260800 07010KT P6SM SCT015
      TEMPO 2609/2613 5SM BR=

USA.gov is the U.S. government's official web portal to all federal, state and local government web resources and services.